[[{"header":{"parameterUnit":"m.s-1","parameterCategory":1,"la1":30.2991,"la2":30.254,"lo1":-89.0895,"lo2":-89.0444,"dy":0.0017,"dx":0.0017,"nx":28,"ny":28,"refTime":"2024-03-12T09:00:00:Z","depth":0,"parameterNumber":2,"parameterNumberName":"U-component_of_WINDS"},"data":[0,0,0,0,0,0,0,0,0,0,0,0,0,0,0,0,0,0,0,0,0,0,0,0,0,0,0,0,0,0,0,0,0,0,0,0,0,0,0,0,0,0,0,0,0,0,0,0,0,0,0,0,0,0,0,0,0,0,-4.1143,-4.1144,0,-4.125,-4.1251,-4.1252,-4.1237,-4.1235,-4.1233,-4.1232,-4.1341,-4.1345,-4.1349,0,0,0,0,0,0,0,0,0,0,0,0,0,-4.0925,-4.0929,-4.1143,-4.1144,-4.1145,-4.125,-4.1251,-4.1253,-4.1237,-4.1235,-4.1233,-4.1231,-4.1339,-4.1344,-4.135,0,0,0,0,0,0,0,0,0,0,0,0,0,-4.1025,-4.0931,-4.1142,-4.115,-4.1152,-4.1249,-4.1251,-4.1253,-4.1238,-4.1235,-4.1232,-4.123,-4.1337,-4.1344,-4.1351,-4.1447,0,0,-4.1372,-4.1375,0,0,0,0,0,0,0,0,-4.1019,-4.1033,-4.1148,-4.115,-4.1152,-4.1227,-4.1214,-4.1318,-4.1238,-4.1205,-4.1232,-4.1229,-4.1305,-4.1314,-4.134,-4.1452,-4.1456,-4.1372,-4.1376,-4.1379,-4.1381,0,0,0,0,0,0,0,-4.1012,-4.1028,-4.1185,-4.115,-4.1152,-4.1149,-4.116,-4.1234,-4.1269,-4.1208,-4.1207,-4.122,-4.1306,-4.1334,-4.1343,-4.1458,-4.1372,-4.1378,-4.1382,-4.1385,-4.1654,-4.1657,0,0,0,0,0,0,-4.1003,-4.1022,-4.1182,-4.1188,-4.1078,-4.1155,-4.1167,-4.1206,-4.1268,-4.1275,-4.1222,-4.1219,-4.1323,-4.1335,-4.1346,-4.1462,-4.1379,-4.1386,-4.139,-4.1651,-4.1655,-4.1658,0,0,0,0,0,0,-4.0999,-4.1018,-4.1177,-4.1105,-4.1125,-4.1161,-4.1205,-4.1209,-4.1237,-4.1279,-4.1285,-4.1244,-4.1322,-4.1337,-4.1422,-4.1466,-4.1389,-4.1395,-4.1648,-4.1652,-4.1656,-4.1695,0,0,0,0,0,0,-4.0993,-4.1016,-4.1053,-4.1106,-4.1129,-4.1251,-4.1208,-4.1213,-4.1249,-4.1246,-4.1301,-4.1308,-4.1321,-4.1412,-4.1429,-4.1474,-4.14,-4.1644,-4.165,-4.1655,-4.169,-4.17,-4.1709,0,0,0,0,0,-4.0985,-4.1059,-4.1054,-4.1074,-4.1176,-4.1253,-4.1267,-4.128,-4.1253,-4.129,-4.1317,-4.1306,-4.1459,-4.1421,-4.144,-4.1487,-4.1641,-4.1648,-4.1655,-4.1685,-4.1698,-4.1709,0,0,0,0,0,0,-4.1008,-4.1066,-4.1062,-4.1155,-4.12,-4.1251,-4.1297,-4.1293,-4.1346,-4.134,-4.1355,-4.1368,-4.1454,-4.148,-4.1436,-4.1584,-4.1546,-4.1557,-4.1563,-4.1576,-4.1585,-4.1576,-4.1406,0,0,0,0,0,-4.1025,-4.1083,-4.113,-4.1208,-4.1231,-4.1261,-4.1295,-4.1302,-4.1349,-4.1367,-4.14,-4.1445,-4.1504,-4.1542,-4.1598,-4.1695,-4.1706,-4.1737,-4.1747,-4.1755,-4.1763,-4.1816,-4.183,-4.1681,-4.1681,-4.168,0,0,-4.1059,-4.1097,-4.1133,-4.1214,-4.1249,-4.1309,-4.1276,-4.1341,-4.1386,-4.1377,-4.1458,-4.1485,-4.1537,-4.1628,-4.167,-4.1652,-4.1807,-4.1763,-4.1769,-4.1773,-4.1824,-4.1838,-4.1851,-4.1685,-4.1684,-4.1684,0,0,-4.115,-4.1186,-4.1254,-4.1291,-4.1345,-4.1365,-4.1382,-4.1434,-4.1451,-4.1534,-4.1529,-4.1583,-4.1683,-4.172,-4.1752,-4.1861,-4.1852,-4.1879,-4.1928,-4.1979,-4.1991,-4.2001,-4.2039,-4.2052,-4.1888,-4.1888,-4.1888,0,-4.1185,-4.1275,-4.129,-4.1356,-4.1392,-4.1388,-4.1458,-4.1493,-4.1562,-4.1587,-4.1567,-4.1693,-4.1728,-4.1827,-4.1854,-4.1881,-4.19,-4.1871,-4.1988,-4.1999,-4.2009,-4.2044,-4.2059,-4.1891,-4.189,-4.189,-4.189,0,-4.1314,-4.1377,-4.1426,-4.1494,-4.1536,-4.1603,-4.1629,-4.167,-4.1674,-4.1696,-4.1781,-4.1824,-4.1888,-4.1913,-4.1918,-4.2014,-4.2001,-4.1985,-4.1946,-4.2025,-4.2059,-4.2073,-4.1894,-4.1894,-4.1893,-4.1892,0,0,-4.142,-4.1497,-4.1515,-4.1545,-4.1606,-4.1655,-4.1724,-4.1787,-4.1821,-4.1871,-4.1927,-4.2014,-4.1999,-4.2036,-4.2045,-4.2091,-4.2173,-4.2069,-4.207,-4.2085,-4.2281,-4.229,-4.2306,-4.217,-4.2172,-4.2174,-4.2275,0,-4.1516,-4.1635,-4.1652,-4.1757,-4.1815,-4.1814,-4.1874,-4.1918,-4.1941,-4.1994,-4.202,-4.208,-4.2058,-4.2079,-4.2125,-4.2153,-4.2212,-4.2147,-4.2221,-4.2223,-4.2205,-4.2324,-4.2334,-4.2427,-4.2289,-4.2291,-4.2293,0,-4.1642,-4.1695,-4.1806,-4.186,-4.1885,-4.1938,-4.1998,-4.2049,-4.2099,-4.2113,-4.2155,-4.216,-4.223,-4.2192,-4.229,-4.2245,-4.2277,-4.2296,-4.23,-4.2305,-4.226,-4.2329,-4.2457,-4.247,-4.2314,-4.2312,-4.2311,0,-4.1705,-4.1805,-4.1884,-4.1911,-4.1976,-4.2013,-4.2042,-4.209,-4.2128,-4.2181,-4.2205,-4.2267,-4.2299,-4.2347,-4.2367,-4.2338,-4.2463,-4.2427,-4.2476,-4.2475,-4.2499,-4.2497,-4.2631,-4.2525,-4.2525,-4.2525,-4.2524,0,-4.1808,-4.1876,-4.1914,-4.1962,-4.2038,-4.2058,-4.2133,-4.2161,-4.2204,-4.2258,-4.2262,-4.2313,-4.2339,-4.2394,-4.2411,-4.2489,-4.2504,-4.2517,-4.252,-4.2515,-4.2513,-4.2533,-4.2526,-4.2528,-4.2527,-4.2527,-4.2526,0,-4.189,-4.1919,-4.2005,-4.206,-4.2076,-4.2129,-4.2177,-4.2224,-4.2248,-4.2317,-4.2334,-4.2372,-4.2437,-4.2464,-4.2543,-4.2555,-4.2644,-4.2643,-4.2626,-4.2626,-4.2673,-4.2667,-4.2823,-4.2844,-4.2726,-4.2727,-4.2728,0,-4.1953,-4.2005,-4.2066,-4.2103,-4.2133,-4.2192,-4.2231,-4.2254,-4.2294,-4.2356,-4.2396,-4.2461,-4.2514,-4.2618,-4.2653,-4.2714,-4.2714,-4.2764,-4.2723,-4.2716,-4.2712,-4.2707,-4.2712,-4.2771,-4.2772,-4.2773,-4.2774,0,-4.206,-4.2072,-4.2127,-4.2188,-4.2234,-4.2283,-4.2331,-4.2361,-4.2392,-4.2437,-4.2503,-4.2545,-4.2627,-4.2691,-4.2755,-4.2785,-4.2784,-4.2787,-4.2801,-4.2795,-4.2782,-4.2787,-4.2644,-4.2782,-4.2782,-4.2781,-4.278,-4.278,-4.2132,-4.2178,-4.2229,-4.2291,-4.233,-4.2375,-4.2422,-4.2453,-4.2509,-4.2577,-4.2588,-4.2659,-4.271,-4.2795,-4.2829,-4.2885,-4.2872,-4.2893,-4.2897,-4.2901,-4.2903,-4.2776,-4.2897,-4.2897,-4.2896,-4.2896,-4.2896,0,-4.2237,-4.2271,-4.2328,-4.2395,-4.2444,-4.2441,-4.2494,-4.2535,-4.2598,-4.2645,-4.2698,-4.2775,-4.2838,-4.2879,-4.2943,-4.298,-4.2981,-4.2996,-4.2991,-4.2998,-4.2912,-4.2893,-4.2993,-4.2993,-4.2993,-4.2993,-4.2993,-4.2993,-4.2298,-4.2375,-4.2394,-4.2491,-4.2524,-4.2593,-4.2624,-4.2666,-4.2704,-4.279,-4.2842,-4.2869,-4.2914,-4.2982,-4.304,-4.305,-4.3072,-4.3087,-4.3097,-4.3015,-4.3004,-4.2995,-4.2976,-4.3093,-4.3093,-4.3178,-4.3178,-4.3179]},{"header":{"parameterUnit":"m.s-1","parameterCategory":1,"la1":30.2991,"la2":30.254,"lo1":-89.0895,"lo2":-89.0444,"dy":0.0017,"dx":0.0017,"nx":28,"ny":28,"refTime":"2024-03-12T09:00:00:Z","depth":0,"parameterNumber":3,"parameterNumberName":"V-component_of_WINDS"},"data":[0,0,0,0,0,0,0,0,0,0,0,0,0,0,0,0,0,0,0,0,0,0,0,0,0,0,0,0,0,0,0,0,0,0,0,0,0,0,0,0,0,0,0,0,0,0,0,0,0,0,0,0,0,0,0,0,0,0,2.0129,2.0131,0,2.0258,2.026,2.0261,2.0312,2.0311,2.0311,2.0311,2.0442,2.0445,2.0449,0,0,0,0,0,0,0,0,0,0,0,0,0,1.9927,1.9931,2.0129,2.0131,2.0132,2.0258,2.026,2.0262,2.0312,2.0311,2.0311,2.0311,2.0441,2.0445,2.045,0,0,0,0,0,0,0,0,0,0,0,0,0,2.0031,1.9932,2.0129,2.0173,2.0178,2.0258,2.026,2.0262,2.0312,2.0311,2.0311,2.031,2.0439,2.0445,2.045,2.0496,0,0,2.0468,2.047,0,0,0,0,0,0,0,0,2.0026,2.0039,2.0165,2.017,2.0176,2.0268,2.0237,2.034,2.0312,2.0261,2.0311,2.031,2.0384,2.0395,2.042,2.0502,2.0508,2.0468,2.0472,2.0474,2.0476,0,0,0,0,0,0,0,2.0018,2.0034,2.018,2.0166,2.0173,2.0186,2.02,2.0257,2.0324,2.0265,2.0269,2.0284,2.0387,2.0414,2.0423,2.0509,2.0468,2.0473,2.0477,2.0479,2.0638,2.0638,0,0,0,0,0,0,2.0004,2.0027,2.0176,2.0184,2.0098,2.019,2.0206,2.0239,2.0324,2.0336,2.0284,2.0286,2.0405,2.0417,2.0428,2.0489,2.0474,2.0479,2.0483,2.0637,2.0638,2.0639,0,0,0,0,0,0,1.9999,2.0017,2.0171,2.0107,2.0128,2.0194,2.0231,2.0242,2.0269,2.0338,2.035,2.0299,2.0405,2.042,2.0479,2.0494,2.0482,2.0487,2.0636,2.0637,2.0638,2.0608,0,0,0,0,0,0,1.9993,2.0015,2.0032,2.0107,2.0131,2.0219,2.0232,2.0245,2.0279,2.0282,2.0355,2.0367,2.0406,2.047,2.0485,2.0501,2.0492,2.0635,2.0637,2.0638,2.0608,2.0608,2.0609,0,0,0,0,0,1.9986,2.0018,2.0033,2.005,2.0154,2.022,2.0234,2.0278,2.028,2.0298,2.0343,2.0365,2.049,2.0476,2.0493,2.0511,2.0634,2.0636,2.0638,2.0608,2.0608,2.0609,0,0,0,0,0,0,1.9942,2.0028,2.0046,2.0103,2.0154,2.0229,2.0253,2.0276,2.0328,2.0329,2.0381,2.0397,2.0452,2.0488,2.0471,2.0561,2.0564,2.0569,2.0536,2.0536,2.0536,2.0527,2.0496,0,0,0,0,0,1.994,1.9986,2.0059,2.0102,2.0127,2.0186,2.0216,2.0246,2.0301,2.0322,2.0371,2.0423,2.0475,2.0508,2.0558,2.0614,2.0631,2.0635,2.0635,2.0635,2.0639,2.0672,2.0675,2.0645,2.0645,2.0645,0,0,1.9934,1.9987,2.0012,2.0095,2.0138,2.0185,2.0203,2.0252,2.0288,2.033,2.0389,2.0427,2.0489,2.0547,2.0575,2.0578,2.0651,2.0637,2.0636,2.0641,2.0675,2.0677,2.068,2.0646,2.0646,2.0645,0,0,1.9948,1.9992,2.0034,2.0077,2.0143,2.0182,2.0192,2.0264,2.0291,2.0351,2.0384,2.0428,2.0515,2.0558,2.0591,2.0625,2.0647,2.064,2.064,2.0672,2.0675,2.0677,2.069,2.0694,2.0643,2.0643,2.0643,0,1.9933,2.0005,2.0053,2.0101,2.0136,2.0177,2.0221,2.0261,2.0339,2.0363,2.0366,2.0477,2.0522,2.0591,2.06,2.0625,2.0639,2.0631,2.067,2.0673,2.0676,2.0689,2.0694,2.0642,2.0642,2.0642,2.0643,0,1.9984,2.0034,2.006,2.0136,2.0175,2.022,2.0275,2.0309,2.0336,2.0375,2.0437,2.0492,2.0556,2.0575,2.0601,2.0649,2.0649,2.066,2.0664,2.0677,2.069,2.0696,2.064,2.0641,2.0641,2.0642,0,0,1.9973,2.0076,2.0085,2.0121,2.0197,2.0237,2.0284,2.0348,2.0376,2.0429,2.0471,2.0545,2.0557,2.0595,2.0627,2.0655,2.068,2.0664,2.0666,2.0666,2.0737,2.0728,2.0733,2.0695,2.0696,2.0697,2.0732,0,1.9998,2.0085,2.0131,2.0199,2.0247,2.0287,2.0329,2.0381,2.0419,2.0466,2.0508,2.056,2.0571,2.0595,2.0625,2.067,2.0695,2.0668,2.0735,2.0737,2.0719,2.074,2.073,2.0761,2.0738,2.0739,2.0739,0,2.0038,2.0092,2.0165,2.0238,2.026,2.0297,2.0359,2.0403,2.0463,2.0489,2.0532,2.0564,2.0617,2.0617,2.0692,2.0673,2.0703,2.073,2.0732,2.074,2.0739,2.0749,2.0772,2.0776,2.0748,2.0747,2.0746,0,2.0024,2.0115,2.0171,2.0201,2.0286,2.0311,2.0348,2.0408,2.0444,2.0499,2.0523,2.0582,2.0615,2.0661,2.0709,2.0704,2.0779,2.0783,2.0802,2.0801,2.0816,2.0814,2.0844,2.0835,2.0834,2.0834,2.0834,0,2.0047,2.0091,2.0166,2.0201,2.0251,2.0303,2.0352,2.0392,2.0445,2.0489,2.0528,2.0568,2.0628,2.0676,2.0713,2.077,2.0784,2.0807,2.0817,2.0804,2.0801,2.0824,2.0824,2.0836,2.0835,2.0835,2.0835,0,2.004,2.0092,2.0156,2.0233,2.0253,2.0287,2.0353,2.0389,2.043,2.0484,2.05,2.0565,2.0623,2.0676,2.0753,2.0778,2.0836,2.0848,2.0816,2.0821,2.0839,2.0836,2.0884,2.0894,2.0877,2.0877,2.0877,0,2.0051,2.0086,2.0167,2.0199,2.0236,2.0287,2.0324,2.0377,2.0414,2.0487,2.0514,2.0576,2.0628,2.072,2.0773,2.0833,2.0847,2.086,2.0856,2.0843,2.0848,2.0846,2.085,2.0859,2.0859,2.0859,2.0859,0,2.0067,2.0091,2.0143,2.0205,2.0249,2.03,2.0352,2.0376,2.044,2.048,2.0541,2.0581,2.0661,2.0722,2.0789,2.0827,2.0854,2.086,2.0868,2.0855,2.0836,2.0848,2.0816,2.0858,2.0858,2.0859,2.0859,2.0859,2.007,2.0103,2.0166,2.0223,2.0268,2.0317,2.0355,2.0401,2.0453,2.0523,2.0551,2.0613,2.0675,2.0766,2.0805,2.0855,2.086,2.0871,2.0874,2.0876,2.0874,2.0828,2.0867,2.0867,2.0867,2.0867,2.0867,0,2.0088,2.0131,2.0183,2.0256,2.0301,2.0323,2.0383,2.0419,2.0474,2.0529,2.058,2.0651,2.0711,2.077,2.0834,2.0862,2.0876,2.0877,2.0876,2.0885,2.0866,2.0853,2.0865,2.0865,2.0865,2.0865,2.0865,2.0865,2.0103,2.0161,2.0193,2.0275,2.0318,2.0379,2.0412,2.0457,2.0501,2.0579,2.063,2.0668,2.0725,2.0794,2.085,2.0866,2.0888,2.0886,2.0905,2.0886,2.0886,2.0885,2.0874,2.089,2.089,2.092,2.092,2.092]}]]